GW0821 Weather Reports


time (UTC)temp
C
wind
direction
speed
KPH
gust
KPH
rain 1hr
cm
rain 24hr
cm
rain mn
cm
humidity
%
barometer
mb
20260504184609 15 164 1.6 6.4 0.00 0.79 0.79 91 1009.8
20260504183052 15 227 0.0 4.8 0.00 0.79 0.79 90 1009.4
20260504181548 15 0 0.0 6.4 0.00 0.79 0.79 90 1009.2
20260504180049 15 0 1.6 4.8 0.00 0.79 0.79 89 1009.2
20260504174547 15 0 0.0 4.8 0.00 0.79 0.79 89 1009.1
20260504173052 15 204 3.2 9.7 0.00 0.79 0.79 88 1009.4
20260504171549 15 151 3.2 8.0 0.00 0.79 0.79 88 1009.5
20260504081542 18 272 1.6 6.4 0.00 0.00 0.00 68 1011.0
20260504044548 12 0 0.0 1.6 0.00 0.00 0.00 91 1011.5
20260504043042 12 0 0.0 1.6 0.00 0.00 0.00 90 1011.5
20260504041541 12 0 0.0 0.0 0.00 0.00 0.00 90 1011.6
20260504040054 12 0 0.0 0.0 0.00 0.00 0.00 90 1011.7
20260504034556 13 0 0.0 0.0 0.00 0.00 0.00 90 1011.6
20260504033109 13 0 0.0 1.6 0.00 0.00 0.00 89 1011.8
20260504031543 13 0 0.0 0.0 0.00 0.00 0.00 89 1011.9
20260504030046 13 0 0.0 1.6 0.00 0.00 0.00 90 1012.0
20260504024541 12 0 0.0 1.6 0.00 0.00 0.00 90 1011.9
20260504023056 12 0 0.0 1.6 0.00 0.00 0.00 90 1012.0
20260504021544 12 291 1.6 4.8 0.00 0.00 0.00 90 1012.1
20260504020045 12 90 1.6 6.4 0.00 0.00 0.00 91 1012.2
20260504014549 12 352 0.0 3.2 0.00 0.00 0.00 91 1012.3
20260504013047 12 0 0.0 0.0 0.00 0.00 0.00 91 1012.3
20260504011548 12 0 0.0 0.0 0.00 0.00 0.00 91 1012.5
20260504010054 12 0 0.0 0.0 0.00 0.00 0.00 91 1012.5
20260504004600 13 0 0.0 0.0 0.00 0.00 0.00 91 1012.7
20260504003042 13 0 0.0 0.0 0.00 0.00 0.00 91 1012.8
20260504001543 13 0 0.0 0.0 0.00 0.00 0.00 91 1012.8
20260504000045 13 0 0.0 0.0 0.00 0.00 0.00 91 1012.9
20260503234543 12 0 0.0 0.0 0.00 0.00 0.00 92 1013.0
20260503233044 12 0 0.0 1.6 0.00 0.00 0.00 92 1012.9
20260503231542 13 0 0.0 0.0 0.00 0.00 0.00 92 1013.1
20260503230046 12 0 0.0 1.6 0.00 0.00 0.00 91 1013.0
20260503224543 12 0 0.0 0.0 0.00 0.00 0.00 92 1013.1
20260503223054 12 0 0.0 1.6 0.00 0.00 0.00 91 1013.2
20260503221551 13 260 0.0 0.0 0.00 0.00 0.00 90 1013.2
20260503220050 13 0 0.0 0.0 0.00 0.00 0.00 89 1013.4
20260503214543 13 0 0.0 0.0 0.00 0.00 0.00 88 1013.4
20260503213100 13 0 0.0 1.6 0.00 0.00 0.00 88 1013.5
20260503211542 13 0 0.0 0.0 0.00 0.00 0.00 87 1013.5
20260503210048 13 0 0.0 3.2 0.00 0.00 0.00 85 1013.5
20260503204553 13 264 0.0 4.8 0.00 0.00 0.00 83 1013.6
20260503203038 13 224 0.0 4.8 0.00 0.00 0.00 81 1013.7
20260503201547 13 0 0.0 4.8 0.00 0.00 0.00 82 1013.5
20260503200049 13 0 0.0 3.2 0.00 0.00 0.00 82 1013.4
20260503194549 13 153 1.6 6.4 0.00 0.00 0.00 82 1013.2
20260503193052 14 147 0.0 4.8 0.00 0.00 0.00 81 1013.0
20260503191550 14 141 1.6 6.4 0.00 0.00 0.00 80 1013.0
20260503190040 14 149 1.6 8.0 0.00 0.00 0.00 79 1012.8